Weather History for Houlton, ME

Change the Weather History Date:

Thursday, April 25, 2013

  Actual Average Record
Temperature  
Mean Temperature 42 °F 44 °F  
Max Temperature 56 °F 55 °F 81 °F (1942)
Min Temperature 28 °F 32 °F 17 °F (1965)
Degree Days  
Heating Degree Days 23 21  
Month to date heating degree days 708 676  
Since 1 July heating degree days 7888 8472  
Cooling Degree Days 0 0  
Month to date cooling degree days 0 0  
Year to date cooling degree days 0 0  
Moisture  
Dew Point 39 °F    
Average Humidity 68    
Maximum Humidity 100    
Minimum Humidity 35    
Precipitation  
Precipitation 0.04 in 0.13 in 0.95 in (1983)
Month to date precipitation 1.35 3.20  
Year to date precipitation 5.52 10.65  
Snow  
Snow 0.00 in 0.10 in 2.00 in (1977)
Month to date snowfall 0.0 5.7  
Since 1 July snowfall 0.0 89.1  
Snow Depth 0.00 in    
Sea Level Pressure  
Sea Level Pressure 29.91 in    
Wind  
Wind Speed 7 mph (SSW)    
Max Wind Speed 20 mph    
Max Gust Speed 30 mph    
Visibility 7 miles    
Events Rain    
T = Trace of Precipitation, MM = Missing Value Source: NWS Daily Summary

Daily Weather History Graph

Daily Weather History Graph

Search for Another Location

Airport:

Trip Planner

Search our weather history database for the weather conditions in past years. The results will help you decide how hot, cold, wet, or windy it might be!

Date:

Astronomy

Apr. 25, 2013 Rise Set
Actual Time 5:27 AM EDT 7:31 PM EDT
Civil Twilight 4:54 AM EDT 8:04 PM EDT
Nautical Twilight 4:14 AM EDT 8:44 PM EDT
Astronomical Twilight 3:30 AM EDT 9:29 PM EDT
Moon 7:42 PM EDT (4/25) 5:08 AM EDT (4/25)
Length of Visible Light 15h 09m
Length of Day
14h 04m
Full, 100% of the Moon is Illuminated
Apr 25
Full
Apr 25
Full
May 2
Last Quarter
May 9
New
May 18
First Quarter

Hourly Weather History & Observations

Time (EDT) Temp. Windchill Dew Point Humidity Pressure Visibility Wind Dir Wind Speed Gust Speed Precip Events Conditions
12:17 AM 44.6 °F 41.4 °F 42.8 °F 93% 29.78 in 2.5 mi South 5.8 mph - N/A   Overcast
12:29 AM 44.6 °F 40.2 °F 42.8 °F 93% 29.77 in 3.0 mi South 8.1 mph - N/A   Overcast
12:53 AM 44.1 °F 40.8 °F 43.0 °F 96% 29.78 in 4.0 mi Variable 5.8 mph - N/A   Overcast
1:40 AM 44.6 °F 41.4 °F 44.6 °F 100% 29.76 in 3.0 mi SSE 5.8 mph - N/A   Overcast
1:53 AM 45.0 °F 41.2 °F 44.1 °F 97% 29.76 in 4.0 mi South 6.9 mph - N/A   Overcast
2:11 AM 44.6 °F 40.7 °F 44.6 °F 100% 29.74 in 2.0 mi South 6.9 mph - N/A   Overcast
2:31 AM 44.6 °F 39.7 °F 44.6 °F 100% 29.73 in 5.0 mi South 9.2 mph 17.3 mph N/A   Overcast
2:53 AM 45.0 °F 40.6 °F 44.1 °F 97% 29.74 in 9.0 mi South 8.1 mph 17.3 mph N/A   Overcast
3:22 AM 44.6 °F 40.2 °F 42.8 °F 93% 29.73 in 10.0 mi South 8.1 mph 20.7 mph N/A   Overcast
3:53 AM 45.0 °F 40.1 °F 43.0 °F 93% 29.75 in 10.0 mi South 9.2 mph - N/A   Overcast
4:53 AM 45.0 °F 39.7 °F 44.1 °F 97% 29.76 in 7.0 mi South 10.4 mph 16.1 mph 0.00 in Rain Light Rain
5:46 AM 44.6 °F 39.2 °F 44.6 °F 100% 29.76 in 4.0 mi South 10.4 mph 17.3 mph 0.00 in   Overcast
5:53 AM 45.0 °F 39.7 °F 44.1 °F 97% 29.77 in 4.0 mi South 10.4 mph 16.1 mph 0.00 in   Overcast
6:23 AM 44.6 °F 40.7 °F 44.6 °F 100% 29.77 in 2.5 mi South 6.9 mph - N/A   Overcast
6:40 AM 44.6 °F 39.7 °F 44.6 °F 100% 29.79 in 1.8 mi South 9.2 mph - N/A   Overcast
6:53 AM 45.0 °F 41.2 °F 45.0 °F 100% 29.82 in 2.0 mi Variable 6.9 mph - 0.00 in Rain Light Rain
7:13 AM 46.4 °F 43.5 °F 44.6 °F 93% 29.81 in 4.0 mi Variable 5.8 mph - 0.00 in Rain Light Rain
7:31 AM 46.4 °F 42.9 °F 44.6 °F 93% 29.81 in 3.0 mi South 6.9 mph - 0.01 in Rain Light Rain
7:53 AM 46.9 °F - 46.0 °F 97% 29.82 in 4.0 mi South 6.9 mph - 0.01 in Rain Light Rain
8:53 AM 48.0 °F - 46.0 °F 93% 29.86 in 8.0 mi SW 6.9 mph - 0.03 in   Overcast
9:31 AM 48.2 °F - 46.4 °F 93% 29.87 in 10.0 mi SSW 6.9 mph - N/A   Overcast
9:53 AM 48.9 °F - 46.0 °F 90% 29.89 in 10.0 mi SSW 6.9 mph - N/A   Overcast
10:53 AM 51.1 °F - 45.0 °F 80% 29.92 in 10.0 mi WSW 5.8 mph - N/A   Overcast
11:53 AM 54.0 °F - 37.9 °F 55% 29.96 in 10.0 mi West 12.7 mph 20.7 mph N/A   Partly Cloudy
12:53 PM 54.0 °F - 35.1 °F 49% 29.98 in 10.0 mi West 10.4 mph 20.7 mph N/A   Clear
1:53 PM 55.0 °F - 32.0 °F 42% 30.02 in 10.0 mi NW 12.7 mph 24.2 mph N/A   Clear
2:53 PM 55.0 °F - 30.0 °F 38% 30.04 in 10.0 mi WSW 17.3 mph 24.2 mph N/A   Partly Cloudy
3:53 PM 54.0 °F - 28.0 °F 37% 30.06 in 10.0 mi West 16.1 mph 19.6 mph N/A   Scattered Clouds
4:53 PM 54.0 °F - 28.0 °F 37% 30.08 in 10.0 mi WNW 10.4 mph 20.7 mph N/A   Partly Cloudy
5:53 PM 53.1 °F - 27.0 °F 37% 30.10 in 10.0 mi Variable 5.8 mph 16.1 mph N/A   Clear
6:53 PM 50.0 °F - 27.0 °F 41% 30.15 in 10.0 mi West 8.1 mph - N/A   Clear
7:53 PM 45.0 °F - 28.9 °F 53% 30.19 in 10.0 mi Calm Calm - N/A   Clear
8:53 PM 44.1 °F 42.5 °F 27.0 °F 51% 30.23 in 10.0 mi WNW 3.5 mph - N/A   Clear
9:53 PM 39.9 °F - 28.0 °F 63% 30.25 in 10.0 mi Calm Calm - N/A   Clear
10:53 PM 30.0 °F - 27.0 °F 88% 30.27 in 10.0 mi Calm Calm - N/A   Clear
11:53 PM 28.9 °F - 27.0 °F 92% 30.29 in 10.0 mi Calm Calm - N/A   Clear